Weather History for Montgomery, AL

Change the Weather History Date:

Saturday, May 3, 2014

  Actual Average Record
Temperature  
Mean Temperature 64 °F 69 °F  
Max Temperature 80 °F 81 °F 94 °F (1990)
Min Temperature 48 °F 57 °F 46 °F (1995)
Degree Days  
Heating Degree Days 1    
Cooling Degree Days 0 5  
Month to date cooling degree days 0 13  
Year to date cooling degree days 99 114  
Growing Degree Days 14 (Base 50)    
Moisture  
Dew Point 47 °F    
Average Humidity 61    
Maximum Humidity 93    
Minimum Humidity 28    
Precipitation  
Precipitation 0.00 in 0.11 in 3.66 in (1957)
Month to date precipitation 0.00 0.33  
Year to date precipitation 23.34 20.23  
Sea Level Pressure  
Sea Level Pressure 30.03 in    
Wind  
Wind Speed 4 mph (West)    
Max Wind Speed 16 mph    
Max Gust Speed 22 mph    
Visibility 10 miles    
Events      
T = Trace of Precipitation, MM = Missing Value Source: NWS Daily Summary

Daily Weather History Graph

Daily Weather History Graph

Search for Another Location

Airport:

Trip Planner

Search our weather history database for the weather conditions in past years. The results will help you decide how hot, cold, wet, or windy it might be!

Date:

Astronomy

May. 03, 2014 Rise Set
Actual Time 5:57 AM CDT 7:28 PM CDT
Civil Twilight 5:31 AM CDT 7:54 PM CDT
Nautical Twilight 4:59 AM CDT 8:25 PM CDT
Astronomical Twilight 4:26 AM CDT 8:58 PM CDT
Moon 9:29 AM CDT (5/3) 11:31 PM CDT (5/3)
Length of Visible Light 14h 23m
Length of Day
13h 30m
Waxing Crescent, 20% of the Moon is Illuminated
May 3
Waxing Crescent
May 6
First Quarter
May 14
Full
May 21
Last Quarter
May 28
New

Hourly Weather History & Observations

Time (CDT) Temp. Dew Point Humidity Pressure Visibility Wind Dir Wind Speed Gust Speed Precip Events Conditions
12:53 AM 55.9 °F 48.9 °F 77% 29.99 in 10.0 mi Calm Calm - N/A   Clear
1:53 AM 53.1 °F 48.0 °F 83% 29.99 in 10.0 mi WNW 5.8 mph - N/A   Clear
2:53 AM 52.0 °F 48.0 °F 86% 30.00 in 10.0 mi Calm Calm - N/A   Clear
3:53 AM 51.1 °F 48.0 °F 89% 30.00 in 10.0 mi Calm Calm - N/A   Clear
4:53 AM 48.9 °F 46.9 °F 93% 30.01 in 10.0 mi Calm Calm - N/A   Clear
5:53 AM 48.9 °F 46.0 °F 90% 30.02 in 10.0 mi Calm Calm - N/A   Clear
6:53 AM 52.0 °F 48.9 °F 89% 30.04 in 10.0 mi Calm Calm - N/A   Clear
7:53 AM 57.9 °F 50.0 °F 75% 30.05 in 10.0 mi Calm Calm - N/A   Clear
8:53 AM 63.0 °F 48.9 °F 60% 30.07 in 10.0 mi Calm Calm - N/A   Clear
9:53 AM 69.1 °F 46.9 °F 45% 30.07 in 10.0 mi Variable 3.5 mph - N/A   Clear
10:53 AM 73.0 °F 46.0 °F 38% 30.08 in 10.0 mi WSW 5.8 mph - N/A   Clear
11:53 AM 75.0 °F 43.0 °F 32% 30.07 in 10.0 mi NW 9.2 mph 16.1 mph N/A   Clear
12:53 PM 77.0 °F 44.1 °F 31% 30.05 in 10.0 mi West 9.2 mph 18.4 mph N/A   Clear
1:53 PM 78.1 °F 45.0 °F 31% 30.04 in 10.0 mi NW 12.7 mph 19.6 mph N/A   Partly Cloudy
2:53 PM 79.0 °F 46.0 °F 31% 30.02 in 10.0 mi West 9.2 mph - N/A   Scattered Clouds
3:53 PM 79.0 °F 44.1 °F 29% 30.01 in 10.0 mi NW 6.9 mph - N/A   Clear
4:53 PM 79.0 °F 43.0 °F 28% 30.01 in 10.0 mi West 6.9 mph 18.4 mph N/A   Clear
5:53 PM 78.1 °F 44.1 °F 30% 30.01 in 10.0 mi West 10.4 mph - N/A   Clear
6:53 PM 73.9 °F 46.0 °F 37% 30.02 in 10.0 mi WSW 4.6 mph - N/A   Clear
7:53 PM 68.0 °F 50.0 °F 52% 30.04 in 10.0 mi WSW 3.5 mph - N/A   Clear
8:53 PM 66.0 °F 50.0 °F 56% 30.05 in 10.0 mi WSW 4.6 mph - N/A   Clear
9:53 PM 62.1 °F 52.0 °F 70% 30.06 in 10.0 mi SW 4.6 mph - N/A   Clear
10:53 PM 60.1 °F 53.1 °F 78% 30.07 in 10.0 mi Calm Calm - N/A   Clear
11:53 PM 57.9 °F 52.0 °F 81% 30.08 in 10.0 mi Calm Calm - N/A   Clear